Regional Weather Roundup
Issued by NWS Goodland, KS

Home | Current Version | Previous Version | Graphics & Text | Print | Product List | Glossary On
Versions: 1 2 3 4 5 6 7 8 9 10 11 12 13 14 15 16 17 18 19 20 21 22 23 24 25 26 27 28 29 30 31 32 33 34 35 36 37 38 39 40 41 42 43 44 45 46 47 48 49 50
220
ASUS43 KGLD 190608
RWRGLD

GOODLAND FORECAST AREA HOURLY WEATHER ROUNDUP
NATIONAL WEATHER SERVICE GOODLAND KS
1100 PM MST WED JAN 18 2017

...OFFICIAL OBSERVATIONS...

CITY           SKY/WX    TMP DP  RH WIND       PRES   REMARKS
GOODLAND KS    CLEAR     36  30  79 S8        29.69F
HILL CITY KS   CLEAR     41  40  96 S5        29.76F
IMPERIAL NEB   CLOUDY    28  25  88 SE6       29.69F FOG
MCCOOK NEB     FOG       29  28  96 E3        29.72F VSB 1/4
AKRON CO       CLOUDY    30  18  60 SW9       29.66F
BURLINGTON CO  CLOUDY    31  27  85 SW8       29.69F
LIMON CO       CLOUDY    18  15  88 NW5       29.69F
$$

...UNOFFICIAL OBSERVATIONS...

CITY           SKY/WX    TMP DP  RH WIND       PRES   REMARKS
LENORA KS        N/A     37  32  82 S7          N/A
SHARON SPRINGS   N/A     30  28  90 CALM        N/A
TRENTON NEB      N/A     33  32  96 CALM        N/A
KIT CARSON CO    N/A     26  23  89 CALM        N/A
YUMA CO        FAIR      19  14  79 SW8       29.66F
$$




USA.gov is the U.S. government's official web portal to all federal, state and local government web resources and services.